• en Belgique
  • Liste des pays
  • À 7 jours
  • Température de l'eau
  • Carte satellitaire
  • Carte météo
  • Widgets météo
  • user-avatar
    Se connecter

    Météo par heure à Rogale

    Ce jour, 18 Août, Samedi

    Heure Température Précipitation Vent Pression Humidité
    00:00 +19°C° 0 mm 1 m/s 751 mmHg 84%
    01:00 +18°C° 0 mm 2 m/s 751 mmHg 83%
    02:00 +17°C° 0 mm 2 m/s 751 mmHg 84%
    03:00 +17°C° 0 mm 2 m/s 751 mmHg 85%
    04:00 +17°C° 0 mm 2 m/s 751 mmHg 86%
    05:00 +19°C° 0 mm 1 m/s 751 mmHg 82%
    06:00 +21°C° 0 mm 1 m/s 751 mmHg 78%
    07:00 +22°C° 0 mm 1 m/s 751 mmHg 74%
    08:00 +23°C° 0,3 mm 1 m/s 751 mmHg 70%
    09:00 +25°C° 0,3 mm 2 m/s 751 mmHg 66%
    10:00 +26°C° 0,3 mm 2 m/s 751 mmHg 62%
    11:00 +26°C° 0,7 mm 2 m/s 751 mmHg 62%
    12:00 +27°C° 0,7 mm 2 m/s 751 mmHg 62%
    13:00 +27°C° 0,7 mm 2 m/s 751 mmHg 62%
    14:00 +27°C° 0,7 mm 2 m/s 751 mmHg 65%
    15:00 +26°C° 0,7 mm 2 m/s 751 mmHg 68%
    16:00 +26°C° 0,7 mm 2 m/s 751 mmHg 72%
    17:00 +24°C° 0,2 mm 2 m/s 751 mmHg 78%
    18:00 +21°C° 0,2 mm 2 m/s 751 mmHg 84%
    19:00 +20°C° 0,2 mm 3 m/s 751 mmHg 90%
    20:00 +18°C° 0 mm 2 m/s 751 mmHg 92%
    21:00 +17°C° 0 mm 2 m/s 752 mmHg 93%
    22:00 +16°C° 0 mm 2 m/s 752 mmHg 95%
    23:00 +16°C° 0 mm 2 m/s 752 mmHg 94%

    Demain, 19 Août, Dimanche

    Heure Température Précipitation Vent Pression Humidité
    00:00 +15°C° 0 mm 2 m/s 752 mmHg 94%
    01:00 +14°C° 0 mm 1 m/s 752 mmHg 93%
    02:00 +14°C° 0 mm 1 m/s 752 mmHg 92%
    03:00 +14°C° 0 mm 1 m/s 752 mmHg 91%
    04:00 +13°C° 0 mm 1 m/s 752 mmHg 90%
    05:00 +15°C° 0 mm 2 m/s 752 mmHg 86%
    06:00 +16°C° 0 mm 2 m/s 753 mmHg 83%
    07:00 +17°C° 0 mm 2 m/s 753 mmHg 79%
    08:00 +19°C° 0 mm 2 m/s 753 mmHg 72%
    09:00 +20°C° 0 mm 2 m/s 753 mmHg 66%
    10:00 +22°C° 0 mm 3 m/s 753 mmHg 59%
    11:00 +24°C° 0 mm 3 m/s 753 mmHg 57%
    12:00 +25°C° 0 mm 3 m/s 753 mmHg 55%
    13:00 +25°C° 0 mm 4 m/s 752 mmHg 53%
    14:00 +25°C° 0 mm 3 m/s 752 mmHg 55%
    15:00 +25°C° 0 mm 3 m/s 752 mmHg 57%
    16:00 +25°C° 0 mm 3 m/s 752 mmHg 58%
    17:00 +23°C° 0 mm 2 m/s 752 mmHg 66%
    18:00 +21°C° 0 mm 2 m/s 752 mmHg 73%
    19:00 +20°C° 0 mm 1 m/s 752 mmHg 80%
    20:00 +19°C° 0 mm 1 m/s 752 mmHg 83%
    21:00 +18°C° 0 mm 1 m/s 752 mmHg 85%
    22:00 +18°C° 0 mm 1 m/s 752 mmHg 88%
    23:00 +16°C° 0 mm 1 m/s 751 mmHg 88%

    Après-demain, 20 Août, Lundi

    Heure Température Précipitation Vent Pression Humidité
    00:00 +16°C° 0 mm 1 m/s 751 mmHg 89%
    01:00 +16°C° 0 mm 1 m/s 751 mmHg 89%
    02:00 +16°C° 0 mm 1 m/s 751 mmHg 89%
    03:00 +16°C° 0 mm 1 m/s 751 mmHg 89%
    04:00 +16°C° 0 mm 1 m/s 750 mmHg 88%
    05:00 +17°C° 0 mm 2 m/s 750 mmHg 84%
    06:00 +18°C° 0 mm 2 m/s 750 mmHg 79%
    07:00 +20°C° 0 mm 2 m/s 750 mmHg 74%
    08:00 +21°C° 0 mm 3 m/s 750 mmHg 69%
    09:00 +24°C° 0 mm 3 m/s 750 mmHg 64%
    10:00 +25°C° 0 mm 3 m/s 749 mmHg 59%
    11:00 +26°C° 0 mm 4 m/s 749 mmHg 56%
    12:00 +27°C° 0 mm 4 m/s 749 mmHg 54%
    13:00 +28°C° 0 mm 4 m/s 748 mmHg 52%
    14:00 +28°C° 0,1 mm 3 m/s 748 mmHg 55%
    15:00 +27°C° 0,1 mm 3 m/s 748 mmHg 58%
    16:00 +27°C° 0,1 mm 3 m/s 747 mmHg 61%
    17:00 +26°C° 0,2 mm 3 m/s 747 mmHg 66%
    18:00 +24°C° 0,2 mm 3 m/s 747 mmHg 72%
    19:00 +22°C° 0,2 mm 3 m/s 746 mmHg 77%
    20:00 +21°C° 0,3 mm 3 m/s 746 mmHg 81%
    21:00 +19°C° 0,3 mm 2 m/s 746 mmHg 86%
    22:00 +18°C° 0,3 mm 2 m/s 746 mmHg 90%
    23:00 +18°C° 0 mm 2 m/s 746 mmHg 91%

    21 Août, Mardi

    Heure Température Précipitation Vent Pression Humidité
    00:00 +18°C° 0 mm 3 m/s 746 mmHg 92%
    01:00 +18°C° 0 mm 3 m/s 745 mmHg 92%
    02:00 +18°C° 0 mm 4 m/s 745 mmHg 93%
    03:00 +17°C° 0 mm 4 m/s 745 mmHg 94%
    04:00 +17°C° 0 mm 4 m/s 746 mmHg 95%
    05:00 +17°C° 0,1 mm 5 m/s 746 mmHg 92%
    06:00 +17°C° 0,1 mm 5 m/s 746 mmHg 90%
    07:00 +19°C° 0,1 mm 5 m/s 747 mmHg 87%
    08:00 +19°C° 0,2 mm 5 m/s 747 mmHg 82%
    09:00 +20°C° 0,2 mm 5 m/s 748 mmHg 77%
    10:00 +21°C° 0,2 mm 5 m/s 748 mmHg 72%
    11:00 +21°C° 0,1 mm 5 m/s 748 mmHg 69%
    12:00 +21°C° 0,1 mm 5 m/s 749 mmHg 66%
    13:00 +21°C° 0,1 mm 5 m/s 749 mmHg 63%
    14:00 +21°C° 0 mm 5 m/s 749 mmHg 63%
    15:00 +21°C° 0 mm 5 m/s 750 mmHg 62%
    16:00 +21°C° 0 mm 5 m/s 750 mmHg 62%
    17:00 +19°C° 0 mm 4 m/s 751 mmHg 68%
    18:00 +17°C° 0 mm 3 m/s 751 mmHg 74%
    19:00 +16°C° 0 mm 3 m/s 751 mmHg 79%
    20:00 +15°C° 0 mm 2 m/s 752 mmHg 82%
    21:00 +14°C° 0 mm 2 m/s 752 mmHg 84%
    22:00 +13°C° 0 mm 2 m/s 753 mmHg 86%
    23:00 +12°C° 0 mm 2 m/s 753 mmHg 87%

    22 Août, Mercredi

    Heure Température Précipitation Vent Pression Humidité
    00:00 +12°C° 0 mm 1 m/s 753 mmHg 88%
    01:00 +12°C° 0 mm 1 m/s 754 mmHg 89%
    02:00 +11°C° 0 mm 1 m/s 754 mmHg 89%
    03:00 +11°C° 0 mm 1 m/s 754 mmHg 90%
    04:00 +10°C° 0 mm 0 m/s 754 mmHg 90%
    05:00 +13°C° 0 mm 1 m/s 755 mmHg 85%
    06:00 +14°C° 0 mm 1 m/s 755 mmHg 79%
    07:00 +16°C° 0 mm 1 m/s 755 mmHg 74%
    08:00 +18°C° 0 mm 1 m/s 755 mmHg 68%
    09:00 +20°C° 0 mm 1 m/s 755 mmHg 62%
    10:00 +20°C° 0 mm 2 m/s 755 mmHg 56%
    11:00 +21°C° 0 mm 2 m/s 755 mmHg 53%
    12:00 +21°C° 0 mm 2 m/s 755 mmHg 50%
    13:00 +23°C° 0 mm 2 m/s 754 mmHg 47%
    14:00 +23°C° 0 mm 2 m/s 754 mmHg 47%
    15:00 +23°C° 0 mm 2 m/s 754 mmHg 48%
    16:00 +23°C° 0 mm 1 m/s 754 mmHg 48%
    17:00 +22°C° 0 mm 1 m/s 754 mmHg 54%
    18:00 +20°C° 0 mm 1 m/s 754 mmHg 59%
    19:00 +18°C° 0 mm 1 m/s 753 mmHg 65%
    20:00 +16°C° 0 mm 1 m/s 753 mmHg 66%
    21:00 +16°C° 0 mm 2 m/s 753 mmHg 66%
    22:00 +15°C° 0 mm 2 m/s 754 mmHg 67%
    23:00 +15°C° 0 mm 2 m/s 753 mmHg 68%

    23 Août, Jeudi

    Heure Température Précipitation Vent Pression Humidité
    00:00 +15°C° 0 mm 2 m/s 753 mmHg 69%
    01:00 +14°C° 0 mm 2 m/s 753 mmHg 70%
    02:00 +14°C° 0 mm 2 m/s 753 mmHg 71%
    03:00 +14°C° 0 mm 2 m/s 753 mmHg 72%
    04:00 +14°C° 0 mm 2 m/s 753 mmHg 73%
    05:00 +15°C° 0 mm 2 m/s 753 mmHg 71%
    06:00 +16°C° 0 mm 2 m/s 753 mmHg 69%
    07:00 +18°C° 0 mm 2 m/s 753 mmHg 67%
    08:00 +20°C° 0 mm 2 m/s 753 mmHg 63%
    09:00 +23°C° 0 mm 2 m/s 753 mmHg 58%
    10:00 +25°C° 0 mm 2 m/s 753 mmHg 53%
    11:00 +25°C° 0 mm 2 m/s 752 mmHg 51%
    12:00 +26°C° 0 mm 2 m/s 752 mmHg 48%
    13:00 +27°C° 0 mm 2 m/s 752 mmHg 46%
    14:00 +27°C° 0 mm 2 m/s 752 mmHg 47%
    15:00 +27°C° 0 mm 1 m/s 752 mmHg 48%
    16:00 +27°C° 0 mm 1 m/s 751 mmHg 49%
    17:00 +25°C° 0 mm 1 m/s 751 mmHg 54%
    18:00 +23°C° 0 mm 1 m/s 751 mmHg 59%
    19:00 +21°C° 0 mm 1 m/s 751 mmHg 65%
    20:00 +20°C° 0 mm 1 m/s 751 mmHg 66%
    21:00 +19°C° 0 mm 2 m/s 751 mmHg 68%
    22:00 +18°C° 0 mm 2 m/s 751 mmHg 70%
    23:00 +18°C° 0 mm 2 m/s 751 mmHg 71%
    Voir plus